Weather reports worldwide

Advertisment
Castellon, Spain (8286): temperature & dewpoint: 15.02.2020 03:00:00 - 21.02.2020 03:00:00 (CET)Castellon, Spain (8286): wind speed: 15.02.2020 03:00:00 - 21.02.2020 03:00:00 (CET)Castellon, Spain (8286): wind direction: 15.02.2020 03:00:00 - 21.02.2020 03:00:00 (CET)Castellon, Spain (8286): reduced air pressure: 15.02.2020 03:00:00 - 21.02.2020 03:00:00 (CET)Castellon, Spain (8286): visibility: 15.02.2020 03:00:00 - 21.02.2020 03:00:00 (CET)Castellon, Spain (8286): precipitation: 15.02.2020 03:00:00 - 21.02.2020 03:00:00 (CET)
Date & Time tt [°C] td [°C] ff [km/h] ff [kn] dd ppp [hPa] vv [km] rr [mm]
21.02.2020 03:00:00 8,5 7,3 9 5 W 1028,0 6 0,0
21.02.2020 02:00:00 8,9 7,7 5 3 W 1027,8 - 0,0
21.02.2020 01:00:00 9,1 7,5 5 3 NW 1027,4 6 -
21.02.2020 00:00:00 9,6 7,9 5 3 WNW 1027,2 6 0,0
20.02.2020 23:00:00 10,3 8,7 2 1 W 1027,1 8 0,0
20.02.2020 22:00:00 10,8 8,9 4 2 NW 1026,8 13 -
20.02.2020 21:00:00 11,8 9,9 4 2 NW 1026,5 15 0,0
20.02.2020 20:00:00 11,9 9,8 2 1 SW 1026,3 18 0,0
20.02.2020 19:00:00 12,9 10,3 4 2 S 1025,8 20 -
20.02.2020 18:00:00 14,2 10,2 9 5 SSE 1025,2 20 0,0
20.02.2020 17:00:00 15,2 9,8 8 4 S 1024,6 20 0,0
20.02.2020 16:00:00 15,5 9,4 9 5 SE 1024,4 20 -
20.02.2020 15:00:00 16,0 9,6 8 4 SE 1024,4 20 0,0
20.02.2020 14:00:00 16,5 8,9 9 5 SE 1024,7 20 0,0
20.02.2020 13:00:00 16,6 7,8 8 4 SE 1025,3 25 -
20.02.2020 12:00:00 15,5 7,8 4 2 SE 1026,0 20 0,0
20.02.2020 11:00:00 12,4 6,9 2 1 S 1026,4 20 0,0
20.02.2020 10:00:00 9,8 5,2 4 2 WNW 1026,7 40 -
20.02.2020 09:00:00 7,8 4,4 8 4 WNW 1026,4 17 0,0
20.02.2020 08:00:00 7,0 4,5 11 6 WNW 1025,9 14 0,0
20.02.2020 07:00:00 7,8 4,7 9 5 WNW 1025,7 15 -
20.02.2020 06:00:00 8,2 5,1 9 5 WNW 1025,8 18 0,0
20.02.2020 05:00:00 8,9 5,1 11 6 WNW 1026,0 20 0,0
20.02.2020 04:00:00 10,0 6,3 8 4 WNW 1026,4 20 -
20.02.2020 03:00:00 11,4 7,9 9 5 WNW 1027,1 20 0,0
20.02.2020 02:00:00 11,8 8,1 8 4 WNW 1027,7 20 0,0
20.02.2020 01:00:00 12,0 8,1 4 2 NW 1028,2 20 -
20.02.2020 00:00:00 12,3 8,2 5 3 WNW 1028,6 20 0,0
19.02.2020 23:00:00 12,6 8,3 5 3 SW 1029,1 20 0,0
19.02.2020 22:00:00 12,3 8,0 4 2 S 1029,5 20 -
19.02.2020 21:00:00 12,1 8,0 4 2 S 1029,5 20 0,0
19.02.2020 20:00:00 12,4 7,9 5 3 S 1029,8 20 0,0
19.02.2020 19:00:00 13,2 7,2 5 3 S 1030,0 19 -
19.02.2020 18:00:00 13,8 6,6 5 3 SSE 1029,8 20 0,0
19.02.2020 17:00:00 14,8 7,1 9 5 SSE 1029,8 20 0,0
19.02.2020 16:00:00 15,4 7,4 11 6 SE 1030,1 20 -
19.02.2020 15:00:00 16,2 8,7 11 6 S 1030,5 20 0,0
19.02.2020 14:00:00 16,6 7,5 9 5 SSE 1031,2 20 0,0
19.02.2020 13:00:00 16,4 6,5 9 5 SE 1032,2 40 -
19.02.2020 12:00:00 15,4 5,0 8 4 E 1032,6 20 0,0
19.02.2020 11:00:00 13,8 0,8 5 3 N 1032,5 20 0,0
19.02.2020 10:00:00 11,3 4,3 9 5 W 1032,2 40 -
19.02.2020 09:00:00 9,4 3,1 8 4 WNW 1031,6 20 0,0
19.02.2020 08:00:00 9,1 3,5 9 5 WNW 1031,2 20 0,0
19.02.2020 07:00:00 10,2 3,9 8 4 W 1030,8 20 -
19.02.2020 06:00:00 10,3 4,0 8 4 WNW 1031,2 20 0,0
19.02.2020 05:00:00 9,7 4,7 4 2 NW 1031,4 20 0,0
19.02.2020 04:00:00 10,6 4,5 4 2 WNW 1031,3 20 -
19.02.2020 03:00:00 11,5 6,4 2 1 NW 1031,7 20 0,0
19.02.2020 02:00:00 12,1 10,0 4 2 NNW 1031,7 16 0,0
19.02.2020 01:00:00 12,3 10,0 2 1 ENE 1031,8 17 -
19.02.2020 00:00:00 12,8 10,2 0 0 N 1031,8 19 0,0
18.02.2020 23:00:00 13,0 10,2 4 2 NNW 1031,8 20 0,0
18.02.2020 22:00:00 13,0 10,2 4 2 N 1031,8 20 -
18.02.2020 21:00:00 13,1 9,9 5 3 S 1031,5 20 0,0
18.02.2020 20:00:00 13,2 10,0 4 2 SSE 1031,3 20 0,0
18.02.2020 19:00:00 13,2 10,0 4 2 S 1030,9 20 -
18.02.2020 18:00:00 13,5 10,8 4 2 WNW 1030,7 19 0,0
18.02.2020 17:00:00 13,6 10,4 4 2 NNW 1030,8 20 0,0
18.02.2020 16:00:00 14,4 10,0 4 2 ESE 1030,9 20 -
18.02.2020 15:00:00 14,3 8,7 2 1 NNW 1031,1 20 0,0
18.02.2020 14:00:00 14,7 8,9 4 2 NW 1031,8 20 0,0
18.02.2020 13:00:00 13,5 8,5 5 3 WNW 1032,6 20 -
18.02.2020 12:00:00 12,8 8,7 5 3 NW 1033,4 20 0,0
18.02.2020 11:00:00 13,0 8,3 4 2 NE 1033,2 12 0,0
18.02.2020 10:00:00 13,2 7,0 5 3 S 1033,0 30 -
18.02.2020 09:00:00 13,1 5,0 4 2 NNW 1032,5 20 0,0
18.02.2020 08:00:00 13,0 4,9 4 2 NW 1031,8 20 0,0
18.02.2020 07:00:00 13,3 4,7 4 2 NW 1031,4 20 -
18.02.2020 06:00:00 13,9 4,5 4 2 N 1031,3 20 0,0
18.02.2020 05:00:00 14,2 3,9 9 5 NNE 1031,0 20 0,0
18.02.2020 04:00:00 14,0 4,8 9 5 NNE 1030,7 20 -
18.02.2020 03:00:00 13,1 9,9 4 2 N 1030,6 8 0,0
18.02.2020 02:00:00 13,4 9,4 4 2 NE 1030,3 15 0,0
18.02.2020 01:00:00 12,7 11,4 2 1 SSE 1029,9 4,6 -
18.02.2020 00:00:00 12,9 11,5 5 3 WSW 1029,3 3,8 0,0
17.02.2020 23:00:00 13,1 11,8 2 1 SSE 1028,9 4,9 0,0
17.02.2020 22:00:00 13,2 11,8 2 1 ENE 1028,3 4,9 -
17.02.2020 21:00:00 13,2 11,6 4 2 NE 1027,2 - 0,0
17.02.2020 20:00:00 13,3 11,7 4 2 NE 1026,1 5 0,0
17.02.2020 19:00:00 13,6 11,5 4 2 NE 1025,4 - -
17.02.2020 18:00:00 14,5 11,3 4 2 ENE 1024,5 7 0,0
17.02.2020 17:00:00 15,8 11,2 5 3 E 1023,6 7 0,0
17.02.2020 16:00:00 16,1 11,0 5 3 E 1023,4 8 -
17.02.2020 15:00:00 16,3 11,0 9 5 E 1023,4 8 0,0
17.02.2020 14:00:00 16,3 10,6 5 3 E 1023,7 8 0,0
17.02.2020 13:00:00 16,1 10,6 9 5 ESE 1024,4 8 -
17.02.2020 12:00:00 15,5 10,0 5 3 ESE 1025,0 8 0,0
17.02.2020 11:00:00 12,9 9,2 4 2 S 1025,4 10 0,0
17.02.2020 10:00:00 11,7 9,3 5 3 WSW 1025,4 6 -
17.02.2020 09:00:00 10,9 9,2 8 4 WNW 1025,1 6 0,0
17.02.2020 08:00:00 11,1 9,5 11 6 W 1025,1 7 0,0
17.02.2020 07:00:00 10,9 9,3 9 5 WNW 1024,9 6 -
17.02.2020 06:00:00 10,9 9,2 13 7 WNW 1025,1 7 0,0
17.02.2020 05:00:00 11,3 9,9 9 5 WNW 1025,1 6 0,0
17.02.2020 04:00:00 11,5 10,1 11 6 W 1025,0 4,6 -
17.02.2020 03:00:00 11,7 10,3 9 5 WNW 1025,2 4,2 0,0
17.02.2020 02:00:00 11,8 10,4 5 3 WNW 1025,3 3,7 0,0
17.02.2020 01:00:00 12,2 10,6 5 3 NW 1025,5 4,1 -
17.02.2020 00:00:00 12,2 10,4 4 2 WNW 1025,7 4,3 0,0
16.02.2020 23:00:00 12,0 10,4 4 2 NNW 1026,1 - 0,0
16.02.2020 22:00:00 11,2 9,5 4 2 N 1026,1 6 -
16.02.2020 21:00:00 11,9 9,8 4 2 NNW 1025,9 - 0,0
16.02.2020 20:00:00 12,7 10,9 4 2 NNE 1025,7 6 0,0
16.02.2020 19:00:00 13,2 10,7 2 1 ENE 1025,5 7 -
16.02.2020 18:00:00 14,1 10,9 8 4 ESE 1025,0 9 0,0
16.02.2020 17:00:00 15,3 10,9 9 5 ESE 1024,7 10 0,0
16.02.2020 16:00:00 16,0 11,0 8 4 SSE 1024,8 13 -
16.02.2020 15:00:00 15,8 9,9 5 3 ESE 1025,4 12 0,0
16.02.2020 14:00:00 15,5 10,0 8 4 ESE 1026,1 10 0,0
16.02.2020 13:00:00 14,4 9,4 5 3 NE 1027,2 9 -
16.02.2020 12:00:00 13,4 9,6 5 3 ESE 1027,8 8 0,0
16.02.2020 11:00:00 12,5 9,7 4 2 S 1027,7 7 0,0
16.02.2020 10:00:00 11,1 9,4 4 2 SW 1027,7 7 -
16.02.2020 09:00:00 9,9 8,7 11 6 WNW 1027,6 7 0,0
16.02.2020 08:00:00 9,8 8,4 8 4 WNW 1026,9 - 0,0
16.02.2020 07:00:00 10,9 9,3 9 5 W 1026,3 7 -
16.02.2020 06:00:00 11,3 9,7 11 6 WNW 1026,3 6 0,0
16.02.2020 05:00:00 11,4 9,8 8 4 WNW 1026,2 6 0,0
16.02.2020 04:00:00 11,9 10,3 9 5 W 1026,9 4,4 -
16.02.2020 03:00:00 12,2 10,8 4 2 WNW 1027,5 5 0,0
16.02.2020 02:00:00 12,0 10,4 4 2 NW 1027,4 - 0,0
16.02.2020 01:00:00 11,4 10,0 4 2 NW 1027,5 7 -
16.02.2020 00:00:00 10,5 9,1 4 2 NW 1027,6 6 0,0
15.02.2020 23:00:00 10,6 9,0 4 2 NW 1027,6 7 0,0
15.02.2020 22:00:00 11,6 9,8 4 2 WNW 1027,7 6 -
15.02.2020 21:00:00 12,3 10,7 4 2 NNE 1027,4 7 0,0
15.02.2020 20:00:00 12,7 10,9 2 1 N 1027,1 9 0,0
15.02.2020 19:00:00 13,3 11,0 2 1 S 1026,6 10 -
15.02.2020 18:00:00 14,1 11,3 5 3 ESE 1025,8 15 0,0
15.02.2020 17:00:00 15,4 11,4 9 5 ESE 1025,2 17 0,0
15.02.2020 16:00:00 15,6 11,4 8 4 ESE 1025,6 19 -
15.02.2020 15:00:00 16,3 11,7 9 5 E 1025,4 17 0,0
15.02.2020 14:00:00 16,9 11,2 9 5 SE 1025,6 20 0,0
15.02.2020 13:00:00 17,1 10,9 8 4 SE 1026,2 19 -
15.02.2020 12:00:00 15,8 10,8 5 3 ESE 1026,6 14 0,0
15.02.2020 11:00:00 12,8 10,5 4 2 E 1026,9 9 0,0
15.02.2020 10:00:00 10,9 7,4 2 1 NW 1027,0 20 -
15.02.2020 09:00:00 9,5 6,9 5 3 WNW 1026,9 16 0,0
15.02.2020 08:00:00 8,7 6,1 4 2 WNW 1026,4 17 0,0
15.02.2020 07:00:00 8,7 6,1 5 3 WNW 1025,5 20 -
15.02.2020 06:00:00 8,9 6,7 5 3 WNW 1025,2 15 0,0
15.02.2020 05:00:00 9,3 6,7 5 3 NW 1024,9 17 0,0
15.02.2020 04:00:00 10,0 7,1 9 5 WNW 1024,9 16 -
15.02.2020 03:00:00 10,4 7,5 5 3 WNW 1025,1 16 0,0

tt = temperature
td = dewpoint
ff = wind speed
dd = wind direction
ppp = reduced air pressure
vv = visibility
rr = precipitation

Next stations